Location: Chuathbaluk
(61.5726°N, 159.2454°W)
Time: 18:52:39
(UTC+00:00)

Explorer 7 - Pass Details

Date: 28 November 2020
Orbit: 484 x 678 km, 50.3° (Epoch: 14 January)

Event Time Altitude Azimuth Distance (km) Brightness Sun altitude
Exits shadow 15:52:08 18° 187° (S) 1,418 8.8 -22.7°
Maximum altitude 15:52:13 18° 186° (S) 1,417 8.9 -22.7°
Drops below altitude 10° 15:54:57 10° 143° (SE) 1,795 9.9 -22.3°
Sets 15:57:40 0° 124° (SE) 2,648 11.3 -22.0°
